Location: Sabalos
(43.2860°N, 0.1414°E)
Time: 03:59:20
(UTC+00:00)

Cosmos 2112 Rocket - Pass Details

Date: 05 July 2020
Orbit: 756 x 787 km, 74.0° (Epoch: 06 August)

Event Time Altitude Azimuth Distance (km) Brightness Sun altitude
Exits shadow 22:48:24 45° 193° (SSW) 1,067 4.3 -21.8°
Maximum altitude 22:50:07 85° 110° (ESE) 795 3.9 -21.9°
Drops below altitude 10° 22:55:30 10° 21° (NNE) 2,357 7.2 -22.2°
Sets 22:57:54 0° 21° (NNE) 3,289 8.1 -22.3°
